Weather History for Aitkin, MN

Change the Weather History Date:

Friday, October 18, 2013

  Actual Average Record
Temperature  
Mean Temperature 42 °F -  
Max Temperature 51 °F 51 °F 72 °F (1965)
Min Temperature 33 °F 32 °F 14 °F (1972)
Degree Days  
Heating Degree Days 23    
Moisture  
Dew Point 32 °F    
Average Humidity 69    
Maximum Humidity 87    
Minimum Humidity 41    
Precipitation  
Precipitation 0.00 in - - ()
Sea Level Pressure  
Sea Level Pressure 29.86 in    
Wind  
Wind Speed 3 mph (WSW)    
Max Wind Speed 13 mph    
Max Gust Speed 18 mph    
Visibility 10 miles    
Events      
Averages and records for this station are not official NWS values.
T = Trace of Precipitation, MM = Missing Value Source: NWS Daily Summary

Daily Weather History Graph

Daily Weather History Graph

Search for Another Location

Airport:

Trip Planner

Search our weather history database for the weather conditions in past years. The results will help you decide how hot, cold, wet, or windy it might be!

Date:

Astronomy

Oct. 18, 2013 Rise Set
Actual Time 7:36 AM CDT 6:22 PM CDT
Civil Twilight 7:06 AM CDT 6:52 PM CDT
Nautical Twilight 6:31 AM CDT 7:27 PM CDT
Astronomical Twilight 5:56 AM CDT 8:02 PM CDT
Moon 6:10 PM CDT (10/18) 7:13 AM CDT (10/18)
Length of Visible Light 11h 46m
Length of Day
10h 45m
Full, 100% of the Moon is Illuminated
Oct 18
Full
Oct 18
Full
Oct 26
Last Quarter
Nov 3
New
Nov 9
First Quarter

Hourly Weather History & Observations

Time (CDT) Temp. Windchill Dew Point Humidity Pressure Visibility Wind Dir Wind Speed Gust Speed Precip Events Conditions
12:12 AM 41.0 °F 39.0 °F 35.6 °F 81% 29.86 in 10.0 mi NW 3.5 mph - N/A   Overcast
12:33 AM 41.0 °F 38.0 °F 35.6 °F 81% 29.86 in 10.0 mi NW 4.6 mph - N/A   Mostly Cloudy
12:52 AM 41.0 °F 38.0 °F 35.6 °F 81% 29.86 in 10.0 mi NW 4.6 mph - N/A   Scattered Clouds
1:13 AM 41.0 °F 39.0 °F 35.6 °F 81% 29.86 in 10.0 mi NW 3.5 mph - N/A   Mostly Cloudy
1:33 AM 41.0 °F 39.0 °F 35.6 °F 81% 29.86 in 10.0 mi WNW 3.5 mph - N/A   Scattered Clouds
1:52 AM 41.0 °F 39.0 °F 35.6 °F 81% 29.86 in 10.0 mi WNW 3.5 mph - N/A   Scattered Clouds
2:13 AM 41.0 °F 39.0 °F 35.6 °F 81% 29.87 in 10.0 mi NW 3.5 mph - N/A   Mostly Cloudy
2:33 AM 41.0 °F 39.0 °F 35.6 °F 81% 29.87 in 10.0 mi WNW 3.5 mph - N/A   Scattered Clouds
2:52 AM 39.2 °F - 35.6 °F 87% 29.87 in 10.0 mi Calm Calm - N/A   Clear
3:13 AM 39.2 °F - 35.6 °F 87% 29.87 in 10.0 mi Calm Calm - N/A   Scattered Clouds
3:33 AM 39.2 °F - 35.6 °F 87% 29.87 in 10.0 mi Calm Calm - N/A   Clear
3:52 AM 39.2 °F 37.0 °F 33.8 °F 81% 29.87 in 10.0 mi WNW 3.5 mph - N/A   Clear
4:13 AM 39.2 °F 35.9 °F 33.8 °F 81% 29.87 in 10.0 mi WNW 4.6 mph - N/A   Clear
4:32 AM 39.2 °F 37.0 °F 33.8 °F 81% 29.87 in 10.0 mi WNW 3.5 mph - N/A   Clear
4:53 AM 39.2 °F 37.0 °F 33.8 °F 81% 29.87 in 10.0 mi WNW 3.5 mph - N/A   Clear
5:13 AM 37.4 °F 34.9 °F 33.8 °F 87% 29.88 in 10.0 mi WNW 3.5 mph - N/A   Clear
5:32 AM 37.4 °F - 32.0 °F 81% 29.88 in 10.0 mi Calm Calm - N/A   Clear
5:53 AM 35.6 °F - 30.2 °F 81% 29.88 in 10.0 mi Calm Calm - N/A   Clear
6:13 AM 35.6 °F - 30.2 °F 81% 29.89 in 10.0 mi Calm Calm - N/A   Clear
6:32 AM 35.6 °F - 30.2 °F 81% 29.89 in 10.0 mi Calm Calm - N/A   Clear
6:53 AM 35.6 °F - 30.2 °F 81% 29.89 in 10.0 mi Calm Calm - N/A   Clear
7:13 AM 35.6 °F - 30.2 °F 81% 29.89 in 10.0 mi Calm Calm - N/A   Clear
7:32 AM 33.8 °F - 28.4 °F 81% 29.90 in 10.0 mi Calm Calm - N/A   Clear
7:53 AM 33.8 °F - 28.4 °F 81% 29.90 in 10.0 mi Calm Calm - N/A   Clear
8:12 AM 33.8 °F - 28.4 °F 81% 29.91 in 10.0 mi Calm Calm - N/A   Clear
8:33 AM 35.6 °F - 30.2 °F 81% 29.91 in 10.0 mi Calm Calm - N/A   Clear
8:52 AM 35.6 °F - 30.2 °F 81% 29.92 in 10.0 mi Calm Calm - N/A   Clear
9:13 AM 37.4 °F - 33.8 °F 87% 29.92 in 10.0 mi Calm Calm - N/A   Clear
9:33 AM 39.2 °F 37.0 °F 33.8 °F 81% 29.92 in 10.0 mi WSW 3.5 mph - N/A   Clear
9:52 AM 41.0 °F - 35.6 °F 81% 29.92 in 10.0 mi Calm Calm - N/A   Clear
10:13 AM 42.8 °F - 35.6 °F 76% 29.92 in 10.0 mi Calm Calm - N/A   Scattered Clouds
10:33 AM 44.6 °F 43.1 °F 35.6 °F 71% 29.92 in 10.0 mi West 3.5 mph - N/A   Mostly Cloudy
10:52 AM 46.4 °F 44.3 °F 33.8 °F 62% 29.92 in 10.0 mi WSW 4.6 mph - N/A   Overcast
11:13 AM 48.2 °F - 33.8 °F 58% 29.91 in 10.0 mi WSW 6.9 mph - N/A   Mostly Cloudy
11:33 AM 50.0 °F - 32.0 °F 50% 29.91 in 10.0 mi WSW 4.6 mph - N/A   Mostly Cloudy
11:52 AM 48.2 °F - 30.2 °F 50% 29.91 in 10.0 mi West 4.6 mph - N/A   Mostly Cloudy
12:13 PM 51.8 °F - 30.2 °F 44% 29.90 in 10.0 mi WSW 5.8 mph - N/A   Scattered Clouds
12:32 PM 51.8 °F - 30.2 °F 44% 29.90 in 10.0 mi WSW 9.2 mph - N/A   Scattered Clouds
12:53 PM 51.8 °F - 30.2 °F 44% 29.89 in 10.0 mi WSW 6.9 mph - N/A   Scattered Clouds
1:13 PM 51.8 °F - 30.2 °F 44% 29.88 in 10.0 mi WSW 9.2 mph - N/A   Mostly Cloudy
1:32 PM 48.2 °F - 32.0 °F 54% 29.88 in 10.0 mi WSW 6.9 mph - N/A   Mostly Cloudy
1:53 PM 50.0 °F - 32.0 °F 50% 29.87 in 10.0 mi SW 6.9 mph - N/A   Scattered Clouds
2:13 PM 51.8 °F - 28.4 °F 41% 29.86 in 10.0 mi WSW 9.2 mph - N/A   Scattered Clouds
2:32 PM 51.8 °F - 28.4 °F 41% 29.85 in 10.0 mi SW 10.4 mph - N/A   Scattered Clouds
2:53 PM 51.8 °F - 28.4 °F 41% 29.84 in 10.0 mi West 6.9 mph 16.1 mph N/A   Scattered Clouds
3:13 PM 50.0 °F - 28.4 °F 43% 29.84 in 10.0 mi West 3.5 mph - N/A   Mostly Cloudy
3:32 PM 48.2 °F - 32.0 °F 54% 29.84 in 10.0 mi SW 5.8 mph - N/A   Mostly Cloudy
3:53 PM 50.0 °F - 30.2 °F 47% 29.84 in 10.0 mi West 3.5 mph - N/A   Scattered Clouds
4:13 PM 48.2 °F - 30.2 °F 50% 29.84 in 10.0 mi Calm Calm - N/A   Scattered Clouds
4:32 PM 46.4 °F 40.7 °F 33.8 °F 62% 29.84 in 10.0 mi SW 12.7 mph 18.4 mph N/A   Scattered Clouds
4:53 PM 46.4 °F 44.3 °F 33.8 °F 62% 29.84 in 10.0 mi SSW 4.6 mph - N/A   Scattered Clouds
5:13 PM 46.4 °F 45.2 °F 33.8 °F 62% 29.84 in 10.0 mi SSW 3.5 mph - N/A   Scattered Clouds
5:32 PM 44.6 °F - 33.8 °F 66% 29.84 in 10.0 mi Calm Calm - N/A   Scattered Clouds
5:53 PM 46.4 °F 42.9 °F 33.8 °F 62% 29.84 in 10.0 mi SW 6.9 mph - N/A   Overcast
6:12 PM 46.4 °F 45.2 °F 33.8 °F 62% 29.84 in 10.0 mi SW 3.5 mph - N/A   Mostly Cloudy
6:33 PM 44.6 °F - 33.8 °F 66% 29.83 in 10.0 mi Calm Calm - N/A   Scattered Clouds
6:53 PM 44.6 °F - 33.8 °F 66% 29.83 in 10.0 mi Calm Calm - N/A   Overcast
7:12 PM 42.8 °F 41.1 °F 32.0 °F 66% 29.83 in 10.0 mi SW 3.5 mph - N/A   Mostly Cloudy
7:33 PM 44.6 °F - 30.2 °F 57% 29.83 in 10.0 mi Calm Calm - N/A   Scattered Clouds
7:53 PM 42.8 °F 41.1 °F 30.2 °F 61% 29.82 in 10.0 mi WSW 3.5 mph - N/A   Clear
8:12 PM 42.8 °F - 32.0 °F 66% 29.82 in 10.0 mi Calm Calm - N/A   Clear
8:33 PM 41.0 °F - 32.0 °F 70% 29.82 in 10.0 mi Calm Calm - N/A   Scattered Clouds
8:52 PM 41.0 °F - 32.0 °F 70% 29.81 in 10.0 mi Calm Calm - N/A   Mostly Cloudy
9:13 PM 42.8 °F 41.1 °F 33.8 °F 70% 29.81 in 10.0 mi SSW 3.5 mph - N/A   Mostly Cloudy
9:33 PM 42.8 °F 38.6 °F 33.8 °F 70% 29.81 in 10.0 mi SW 6.9 mph - N/A   Mostly Cloudy
9:52 PM 42.8 °F 40.1 °F 33.8 °F 70% 29.80 in 10.0 mi SW 4.6 mph - N/A   Mostly Cloudy
10:13 PM 42.8 °F 41.1 °F 33.8 °F 70% 29.80 in 10.0 mi SW 3.5 mph - N/A   Overcast
10:33 PM 42.8 °F 41.1 °F 33.8 °F 70% 29.79 in 10.0 mi SW 3.5 mph - N/A   Overcast
10:52 PM 41.0 °F - 33.8 °F 76% 29.79 in 10.0 mi Calm Calm - N/A   Mostly Cloudy
11:13 PM 39.2 °F - 33.8 °F 81% 29.78 in 10.0 mi Calm Calm - N/A   Scattered Clouds
11:33 PM 37.4 °F - 30.2 °F 75% 29.77 in 10.0 mi Calm Calm - N/A   Scattered Clouds
11:52 PM 35.6 °F - 30.2 °F 81% 29.77 in 10.0 mi Calm Calm - N/A   Scattered Clouds